(980) Anacostia
ephemeris date magn radius delta ra dec elong phase
Today25 Aug 202612.82.351 AU2.380 AU04h51m+35°36'76.1°24.7°
Opposition11 Dec 202611.32.564 AU1.592 AU05h08m+34°42'168.2°4.5°
(980) Anacostia - 2026-08-25
astro.vanbuitenen.nl


 
-1 year
-1 month
-1 day
Now
+1 day
+1 month
+1 year

The interactive orbit chart above shows the body's path through the solar system and its position at the given date. Green and blue lines are shown perpendicular to the ecliptic plane: Green if the path is above the ecliptic plane, blue if it is below. (Left-click and drag to rotate the view; Right-click and drag to move the view; Use scroll wheel to zoom in our out.)

The orbital elements of Anacostia are:

            e (Eccentricity)                : 0.2014131
            a (Semimajor axis)              : 2.7407716
            i (Inclination)                 : 15.89613
            Ω (Longitude of ascending node) : 285.76026
            ω (Argument of perihelion)      : 69.75844
            M (Mean anomaly)                : 20.13681
            Epoch                           : 2026 Jun 09

            L (Longitude of perihelion)     : 354.78274
            B (Latitude of perihelion)      : 14.89089
            P (Orbital period in years)     : 4.54            
        

The light curve chart below shows the estimated development of the minor planet's magnitude.


The all-sky chart below shows the path of the minor planet over the same period as the light curve. The current position is marked yellow.





The following chart shows the path of the minor planet in the next few days. The field of view is optimized for (~10x50) binoculars and finderscopes.




Ephemerides:
Date       Time       RA (2000)    DEC (2000)    delta   radius  elong  phase   PA    magn
2026-08-25 00:00 UT   04 51 32.8   +35 36 48     2.380    2.351   76.1   24.7   266   12.8 
2026-08-25 18:09 UT   04 52 45.1   +35 39 26     2.372    2.352   76.5   24.7   266   12.8 
2026-08-26 00:00 UT   04 53 08.3   +35 40 17     2.370    2.352   76.7   24.7   266   12.8 
2026-08-27 00:00 UT   04 54 42.9   +35 43 41     2.360    2.354   77.3   24.8   266   12.8 
2026-08-28 00:00 UT   04 56 16.5   +35 47 01     2.350    2.356   77.9   24.8   266   12.8 
2026-08-29 00:00 UT   04 57 49.1   +35 50 17     2.341    2.358   78.5   24.8   266   12.7 
2026-08-30 00:00 UT   04 59 20.8   +35 53 29     2.331    2.359   79.2   24.9   266   12.7 
2026-08-31 00:00 UT   05 00 51.4   +35 56 36     2.321    2.361   79.8   24.9   266   12.7 
2026-09-01 00:00 UT   05 02 21.1   +35 59 40     2.311    2.363   80.4   24.9   266   12.7 
2026-09-02 00:00 UT   05 03 49.7   +36 02 39     2.301    2.365   81.1   24.9   266   12.7 
2026-09-03 00:00 UT   05 05 17.2   +36 05 35     2.291    2.366   81.7   25.0   266   12.7 
2026-09-04 00:00 UT   05 06 43.6   +36 08 26     2.281    2.368   82.4   25.0   266   12.7 
2026-09-05 00:00 UT   05 08 08.9   +36 11 14     2.271    2.370   83.0   25.0   266   12.7 
2026-09-06 00:00 UT   05 09 33.0   +36 13 58     2.261    2.372   83.7   25.0   266   12.7 
2026-09-07 00:00 UT   05 10 56.0   +36 16 38     2.251    2.374   84.3   25.0   266   12.7 
2026-09-08 00:00 UT   05 12 17.8   +36 19 15     2.241    2.375   85.0   25.0   266   12.7 
2026-09-09 00:00 UT   05 13 38.3   +36 21 48     2.231    2.377   85.7   25.0   266   12.7 
2026-09-10 00:00 UT   05 14 57.6   +36 24 18     2.220    2.379   86.3   25.0   266   12.7 
2026-09-11 00:00 UT   05 16 15.6   +36 26 44     2.210    2.381   87.0   25.0   266   12.6 
2026-09-12 00:00 UT   05 17 32.4   +36 29 06     2.200    2.383   87.7   25.0   266   12.6 
2026-09-13 00:00 UT   05 18 47.8   +36 31 26     2.190    2.384   88.4   25.0   266   12.6 
2026-09-14 00:00 UT   05 20 01.8   +36 33 41     2.180    2.386   89.1   24.9   266   12.6 
2026-09-15 00:00 UT   05 21 14.5   +36 35 54     2.169    2.388   89.8   24.9   266   12.6 
2026-09-16 00:00 UT   05 22 25.8   +36 38 03     2.159    2.390   90.5   24.9   266   12.6 
2026-09-17 00:00 UT   05 23 35.7   +36 40 10     2.149    2.392   91.2   24.8   266   12.6 
2026-09-18 00:00 UT   05 24 44.1   +36 42 13     2.139    2.394   91.9   24.8   266   12.6 
2026-09-19 00:00 UT   05 25 51.1   +36 44 12     2.128    2.396   92.7   24.8   266   12.6 
2026-09-20 00:00 UT   05 26 56.6   +36 46 09     2.118    2.397   93.4   24.7   266   12.6 
2026-09-21 00:00 UT   05 28 00.5   +36 48 03     2.108    2.399   94.1   24.7   266   12.6 
2026-09-22 00:00 UT   05 29 03.0   +36 49 54     2.098    2.401   94.9   24.6   266   12.5 
2026-09-23 00:00 UT   05 30 03.9   +36 51 42     2.087    2.403   95.6   24.6   266   12.5 
2026-09-24 00:00 UT   05 31 03.2   +36 53 27     2.077    2.405   96.4   24.5   265   12.5 


    Terminology:
            
    delta:  distance between minor planet and earth in AU
    radius: distance between minor planet and sun in AU
    magn:   magnitude (brightness) estimate    
    ra:     right ascension in hours (24h = 360deg)
    dec:    declination in degrees
    elong:  elongation in degrees (angle sun-earth-minor planet)    
    phase:  phase angle in degrees (angle sun-minor planet-earth)        
    AU:     Astronomical Unit (mean distance between earth and sun: 149597870.7 km
    

Orbital elements provided by the MPC (Minor Planet Center).
Calculations by a modified version of AAPlus, a C# implementation of the AA+ project by PJ Naughter from the algorithms presented in the book "Astronomical Algorithms" by Jean Meeus.
NGC2000 dso catalog and star labels from VizieR as provided by the Strasbourg astronomical Data Center.
Tycho2 catalog from the ESO archive.